Weather History for Selawik, AK

Change the Weather History Date:

Monday, July 29, 2013

  Actual Average Record
Temperature  
Mean Temperature 56 °F -  
Max Temperature 59 °F 58 °F 71 °F (1997)
Min Temperature 53 °F 48 °F 42 °F (2003)
Degree Days  
Heating Degree Days 9    
Growing Degree Days 6 (Base 50)    
Moisture  
Dew Point 49 °F    
Average Humidity 76    
Maximum Humidity 88    
Minimum Humidity 63    
Precipitation  
Precipitation 0.01 in - - ()
Sea Level Pressure  
Sea Level Pressure 30.19 in    
Wind  
Wind Speed 7 mph (West)    
Max Wind Speed 9 mph    
Max Gust Speed -    
Visibility 9 miles    
Events      
Averages and records for this station are not official NWS values.
T = Trace of Precipitation, MM = Missing Value Source: NWS Daily Summary

Daily Weather History Graph

Daily Weather History Graph

Search for Another Location

Airport:

Trip Planner

Search our weather history database for the weather conditions in past years. The results will help you decide how hot, cold, wet, or windy it might be!

Date:

Astronomy

Jul. 29, 2013 Rise Set
Actual Time 5:07 AM AKDT 12:22 AM AKDT
Civil Twilight 3:18 AM AKDT 2:13 AM AKDT
Nautical Twilight Sun does not rise Sun does not rise
Astronomical Twilight Sun does not rise Sun does not rise
Moon 12:00 AM AKDT (7/29) 5:15 PM AKDT (7/29)
Length of Visible Light 22h 55m
Length of Day
19h 15m
Waning Gibbous, 49% of the Moon is Illuminated
Jul 29
Waning Gibbous
Aug 6
New
Aug 14
First Quarter
Aug 20
Full
Aug 28
Last Quarter

Hourly Weather History & Observations

Time (AKDT) Temp. Dew Point Humidity Pressure Visibility Wind Dir Wind Speed Gust Speed Precip Events Conditions
12:16 AM 57.2 °F 48.2 °F 72% 30.14 in 10.0 mi West 9.2 mph - N/A   Overcast
12:36 AM 57.2 °F 48.2 °F 72% 30.15 in 10.0 mi West 6.9 mph - N/A   Overcast
12:56 AM 57.2 °F 50.0 °F 77% 30.15 in 10.0 mi WSW 4.6 mph - N/A   Overcast
1:16 AM 57.2 °F 50.0 °F 77% 30.15 in 10.0 mi West 3.5 mph - N/A   Overcast
1:36 AM 57.2 °F 50.0 °F 77% 30.16 in 8.0 mi West 6.9 mph - N/A   Overcast
1:56 AM 55.4 °F 50.0 °F 82% 30.16 in 6.0 mi WSW 4.6 mph - N/A   Overcast
2:16 AM 55.4 °F 51.8 °F 88% 30.16 in 3.0 mi WSW 6.9 mph - N/A   Overcast
2:36 AM 55.4 °F 51.8 °F 88% 30.16 in 4.0 mi WSW 6.9 mph - N/A   Mostly Cloudy
2:56 AM 55.4 °F 51.8 °F 88% 30.16 in 5.0 mi West 6.9 mph - 0.01 in   Overcast
3:16 AM 55.4 °F 51.8 °F 88% 30.16 in 7.0 mi West 5.8 mph - N/A   Overcast
3:36 AM 55.4 °F 51.8 °F 88% 30.16 in 10.0 mi West 5.8 mph - N/A   Mostly Cloudy
3:56 AM 55.4 °F 51.8 °F 88% 30.16 in 4.0 mi West 6.9 mph - N/A   Overcast
4:16 AM 55.4 °F 51.8 °F 88% 30.16 in 4.0 mi West 6.9 mph - N/A   Overcast
4:36 AM 53.6 °F 50.0 °F 88% 30.16 in 2.5 mi West 6.9 mph - N/A   Overcast
4:56 AM 53.6 °F 50.0 °F 88% 30.16 in 3.0 mi WNW 8.1 mph - N/A   Overcast
5:16 AM 53.6 °F 50.0 °F 88% 30.16 in 3.0 mi West 5.8 mph - N/A   Overcast
5:36 AM 53.6 °F 50.0 °F 88% 30.16 in 5.0 mi WNW 6.9 mph - N/A   Overcast
5:56 AM 53.6 °F 48.2 °F 82% 30.16 in 10.0 mi West 8.1 mph - N/A   Mostly Cloudy
6:16 AM 53.6 °F 48.2 °F 82% 30.16 in 10.0 mi WNW 5.8 mph - N/A   Overcast
6:36 AM 53.6 °F 48.2 °F 82% 30.16 in 9.0 mi West 8.1 mph - N/A   Overcast
6:56 AM 53.6 °F 48.2 °F 82% 30.16 in 10.0 mi West 6.9 mph - N/A   Overcast
7:16 AM 53.6 °F 48.2 °F 82% 30.16 in 10.0 mi West 6.9 mph - N/A   Overcast
7:36 AM 53.6 °F 48.2 °F 82% 30.16 in 10.0 mi WNW 6.9 mph - N/A   Overcast
7:56 AM 53.6 °F 50.0 °F 88% 30.17 in 10.0 mi WNW 5.8 mph - N/A   Overcast
8:16 AM 55.4 °F 48.2 °F 77% 30.17 in 10.0 mi WNW 8.1 mph - N/A   Overcast
8:36 AM 55.4 °F 48.2 °F 77% 30.18 in 10.0 mi WNW 9.2 mph - N/A   Overcast
8:56 AM 55.4 °F 48.2 °F 77% 30.18 in 10.0 mi West 8.1 mph - N/A   Overcast
9:16 AM 55.4 °F 48.2 °F 77% 30.19 in 10.0 mi West 4.6 mph - N/A   Overcast
9:36 AM 55.4 °F 50.0 °F 82% 30.19 in 10.0 mi WNW 6.9 mph - N/A   Mostly Cloudy
9:56 AM 55.4 °F 50.0 °F 82% 30.19 in 10.0 mi West 8.1 mph - N/A   Overcast
10:16 AM 55.4 °F 50.0 °F 82% 30.19 in 10.0 mi West 6.9 mph - N/A   Overcast
10:36 AM 55.4 °F 50.0 °F 82% 30.19 in 10.0 mi West 8.1 mph - N/A   Overcast
10:56 AM 55.4 °F 50.0 °F 82% 30.19 in 5.0 mi West 8.1 mph - N/A   Overcast
11:16 AM 55.4 °F 51.8 °F 88% 30.19 in 8.0 mi West 8.1 mph - N/A   Overcast
11:36 AM 55.4 °F 50.0 °F 82% 30.20 in 10.0 mi West 9.2 mph - N/A   Overcast
11:56 AM 55.4 °F 50.0 °F 82% 30.20 in 10.0 mi West 6.9 mph - N/A   Overcast
12:16 PM 55.4 °F 48.2 °F 77% 30.20 in 10.0 mi West 8.1 mph - N/A   Overcast
12:36 PM 57.2 °F 48.2 °F 72% 30.20 in 10.0 mi West 8.1 mph - N/A   Overcast
12:56 PM 57.2 °F 48.2 °F 72% 30.21 in 10.0 mi West 4.6 mph - N/A   Overcast
1:16 PM 57.2 °F 48.2 °F 72% 30.22 in 10.0 mi West 8.1 mph - N/A   Overcast
1:36 PM 57.2 °F 48.2 °F 72% 30.22 in 10.0 mi West 9.2 mph - N/A   Overcast
1:56 PM 57.2 °F 48.2 °F 72% 30.22 in 10.0 mi West 5.8 mph - N/A   Overcast
2:16 PM 57.2 °F 48.2 °F 72% 30.22 in 10.0 mi WSW 5.8 mph - N/A   Overcast
2:36 PM 57.2 °F 48.2 °F 72% 30.22 in 10.0 mi West 6.9 mph - N/A   Overcast
2:56 PM 57.2 °F 48.2 °F 72% 30.22 in 10.0 mi West 8.1 mph - N/A   Overcast
3:16 PM 57.2 °F 48.2 °F 72% 30.22 in 10.0 mi SW 8.1 mph - N/A   Overcast
3:36 PM 57.2 °F 48.2 °F 72% 30.22 in 10.0 mi WSW 6.9 mph - N/A   Overcast
3:56 PM 57.2 °F 48.2 °F 72% 30.23 in 10.0 mi West 5.8 mph - N/A   Overcast
4:16 PM 57.2 °F 48.2 °F 72% 30.22 in 10.0 mi West 5.8 mph - N/A   Overcast
4:36 PM 57.2 °F 48.2 °F 72% 30.22 in 10.0 mi WSW 5.8 mph - N/A   Overcast
4:56 PM 57.2 °F 48.2 °F 72% 30.22 in 10.0 mi West 8.1 mph - N/A   Overcast
5:16 PM 57.2 °F 48.2 °F 72% 30.22 in 10.0 mi West 8.1 mph - N/A   Overcast
5:36 PM 59.0 °F 48.2 °F 67% 30.22 in 10.0 mi West 8.1 mph - N/A   Overcast
5:56 PM 59.0 °F 48.2 °F 67% 30.22 in 10.0 mi West 6.9 mph - N/A   Overcast
6:16 PM 59.0 °F 48.2 °F 67% 30.21 in 10.0 mi West 6.9 mph - N/A   Overcast
6:36 PM 59.0 °F 46.4 °F 63% 30.21 in 10.0 mi West 6.9 mph - N/A   Overcast
6:56 PM 59.0 °F 48.2 °F 67% 30.21 in 10.0 mi West 6.9 mph - N/A   Overcast
7:16 PM 59.0 °F 46.4 °F 63% 30.21 in 10.0 mi West 6.9 mph - N/A   Overcast
7:36 PM 59.0 °F 46.4 °F 63% 30.21 in 10.0 mi West 4.6 mph - N/A   Overcast
7:56 PM 59.0 °F 48.2 °F 67% 30.21 in 10.0 mi West 5.8 mph - N/A   Overcast
8:16 PM 59.0 °F 48.2 °F 67% 30.20 in 10.0 mi West 5.8 mph - N/A   Overcast
8:36 PM 59.0 °F 48.2 °F 67% 30.20 in 10.0 mi West 5.8 mph - N/A   Overcast
8:56 PM 59.0 °F 48.2 °F 67% 30.20 in 10.0 mi West 4.6 mph - N/A   Overcast
9:16 PM 59.0 °F 48.2 °F 67% 30.20 in 10.0 mi West 4.6 mph - N/A   Overcast
9:36 PM 59.0 °F 48.2 °F 67% 30.20 in 10.0 mi West 3.5 mph - N/A   Overcast
9:56 PM 59.0 °F 50.0 °F 72% 30.20 in 10.0 mi West 5.8 mph - N/A   Overcast
10:16 PM 59.0 °F 50.0 °F 72% 30.20 in 10.0 mi West 5.8 mph - N/A   Overcast
10:36 PM 59.0 °F 50.0 °F 72% 30.20 in 10.0 mi West 5.8 mph - N/A   Overcast
10:56 PM 59.0 °F 48.2 °F 67% 30.20 in 10.0 mi WNW 5.8 mph - N/A   Overcast
11:16 PM 57.2 °F 50.0 °F 77% 30.20 in 10.0 mi WNW 4.6 mph - N/A   Mostly Cloudy
11:36 PM 57.2 °F 50.0 °F 77% 30.21 in 10.0 mi West 4.6 mph - N/A   Overcast
11:56 PM 57.2 °F 50.0 °F 77% 30.21 in 10.0 mi West 3.5 mph - N/A   Overcast